Location: Ústí nad Labem
(50.6611°N, 14.0531°E)
Time: 05:49:40
(UTC+02:00)

Courier 1B - Visible Passes

Search period start: 22 April 2024 00:00
Search period end: 02 May 2024 00:00
Orbit: 962 x 1208 km, 28.3° (Epoch: 21 April)

Date Brightness Start Highest point End Pass type
(mag) Time Alt. Az. Time Alt. Az. Time Alt. Az.
22 Apr 9.6 04:53:24 10° S 04:53:36 10° S 04:53:49 10° S visible
23 Apr 9.5 04:00:11 11° S 04:00:11 11° S 04:01:49 10° S visible
25 Apr 9.6 04:06:04 10° S 04:06:04 10° S 04:06:19 10° S visible
